Weather History for Lima, OH

Change the Weather History Date:

Monday, December 31, 2012

  Actual Average (KFDY) Record (KFDY)
Temperature  
Mean Temperature 29 °F -  
Max Temperature 34 °F 32 °F 63 °F (1951)
Min Temperature 24 °F 19 °F -17 °F (1976)
Degree Days  
Heating Degree Days 36    
Moisture  
Dew Point 25 °F    
Average Humidity 78    
Maximum Humidity 87    
Minimum Humidity 64    
Precipitation  
Precipitation 0.00 in - - ()
Sea Level Pressure  
Sea Level Pressure 30.08 in    
Wind  
Wind Speed 14 mph (SW)    
Max Wind Speed 18 mph    
Max Gust Speed 26 mph    
Visibility 6 miles    
Events Snow    
Averages and records for this station are not official NWS values.
T = Trace of Precipitation, MM = Missing Value Source: NWS Daily Summary

Daily Weather History Graph

Daily Weather History Graph

Search for Another Location

Airport:

Trip Planner

Search our weather history database for the weather conditions in past years. The results will help you decide how hot, cold, wet, or windy it might be!

Date:

Astronomy

Dec. 31, 2012 Rise Set
Actual Time 8:00 AM EST 5:18 PM EST
Civil Twilight 7:29 AM EST 5:49 PM EST
Nautical Twilight 6:54 AM EST 6:24 PM EST
Astronomical Twilight 6:21 AM EST 6:57 PM EST
Moon 8:49 PM EST 9:40 AM EST
Length of Visible Light 10h 20m
Length of Day
9h 18m
Waning Gibbous, 90% of the Moon is Illuminated
Dec 31
Waning Gibbous
Jan 4
Last Quarter
Jan 11
New
Jan 18
First Quarter
Jan 26
Full

Hourly Weather History & Observations

Time (EST) Temp. Windchill Dew Point Humidity Pressure Visibility Wind Dir Wind Speed Gust Speed Precip Events Conditions
12:53 AM 24.1 °F 12.5 °F 17.1 °F 75% 30.25 in 9.0 mi SSW 12.7 mph - N/A   Clear
1:53 AM 26.1 °F 12.7 °F 18.0 °F 71% 30.23 in 9.0 mi SSW 18.4 mph 24.2 mph N/A   Clear
2:53 AM 26.1 °F 15.0 °F 19.0 °F 75% 30.22 in 9.0 mi SSW 12.7 mph - N/A   Clear
3:53 AM 27.0 °F 15.6 °F 19.0 °F 72% 30.21 in 10.0 mi SSW 13.8 mph 24.2 mph N/A   Clear
4:53 AM 28.0 °F 16.5 °F 19.9 °F 72% 30.18 in 10.0 mi SSW 15.0 mph 20.7 mph N/A   Clear
5:53 AM 28.0 °F 16.1 °F 19.9 °F 72% 30.16 in 10.0 mi SSW 16.1 mph 25.3 mph N/A   Clear
6:53 AM 28.0 °F 17.5 °F 19.9 °F 72% 30.12 in 10.0 mi SSW 12.7 mph - N/A   Clear
7:53 AM 28.0 °F 18.1 °F 19.9 °F 72% 30.11 in 9.0 mi SSW 11.5 mph - N/A   Clear
8:53 AM 28.9 °F 19.2 °F 21.0 °F 72% 30.14 in 9.0 mi SSW 11.5 mph 19.6 mph N/A   Clear
9:53 AM 30.0 °F 20.5 °F 21.9 °F 72% 30.12 in 9.0 mi SSW 11.5 mph - N/A   Clear
10:53 AM 33.1 °F 22.6 °F 23.0 °F 66% 30.14 in 10.0 mi SW 16.1 mph - N/A   Mostly Cloudy
11:53 AM 34.0 °F 23.8 °F 23.0 °F 64% 30.11 in 10.0 mi SW 16.1 mph - N/A   Overcast
12:53 PM 34.0 °F 23.4 °F 23.0 °F 64% 30.08 in 10.0 mi SW 17.3 mph - N/A   Overcast
1:53 PM 34.0 °F 24.2 °F 24.1 °F 67% 30.06 in 7.0 mi SW 15.0 mph 21.9 mph N/A   Overcast
1:58 PM 33.8 °F 24.3 °F 24.8 °F 70% 30.03 in 1.8 mi WSW 13.8 mph 21.9 mph 0.00 in Snow Light Snow
2:09 PM 32.0 °F 22.1 °F 26.6 °F 80% 30.02 in 0.8 mi WSW 13.8 mph 23.0 mph 0.00 in Snow Light Snow
2:16 PM 33.8 °F 25.3 °F 24.8 °F 70% 30.02 in 1.2 mi SW 11.5 mph - 0.00 in Snow Light Snow
2:53 PM 32.0 °F 21.6 °F 27.0 °F 82% 30.06 in 1.0 mi SW 15.0 mph 25.3 mph 0.00 in Snow Light Snow
3:06 PM 32.0 °F 20.5 °F 28.4 °F 87% 30.04 in 0.8 mi SW 18.4 mph 24.2 mph 0.00 in Snow Light Snow
3:14 PM 32.0 °F 20.8 °F 28.4 °F 87% 30.04 in 0.8 mi SW 17.3 mph 26.5 mph 0.00 in Snow Light Snow
3:39 PM 32.0 °F 23.0 °F 28.4 °F 87% 30.02 in 1.0 mi SW 11.5 mph - 0.00 in Snow Light Snow
3:53 PM 32.0 °F 21.6 °F 28.0 °F 85% 30.06 in 1.2 mi SW 15.0 mph - 0.00 in Snow Light Snow
4:38 PM 32.0 °F 21.2 °F 28.4 °F 87% 30.01 in 2.5 mi SW 16.1 mph 20.7 mph 0.00 in Snow Light Snow
4:53 PM 32.0 °F 22.1 °F 28.0 °F 85% 30.05 in 2.5 mi SW 13.8 mph 19.6 mph 0.00 in Snow Light Snow
5:20 PM 32.0 °F 22.5 °F 28.4 °F 87% 30.03 in 1.2 mi SW 12.7 mph - 0.00 in Snow Light Snow
5:51 PM 32.0 °F 23.0 °F 28.4 °F 87% 30.02 in 1.5 mi SW 11.5 mph 19.6 mph 0.00 in Snow Light Snow
5:53 PM 32.0 °F 22.5 °F 28.0 °F 85% 30.06 in 1.5 mi SW 12.7 mph 19.6 mph 0.00 in Snow Light Snow
6:04 PM 32.0 °F 22.5 °F 28.4 °F 87% 30.02 in 2.5 mi SW 12.7 mph - 0.00 in Snow Light Snow
6:14 PM 32.0 °F 23.6 °F 28.4 °F 87% 30.02 in 3.0 mi SW 10.4 mph - 0.00 in Snow Light Snow
7:43 PM 32.0 °F 22.1 °F 28.4 °F 87% 30.03 in 6.0 mi SW 13.8 mph - N/A   Overcast
7:53 PM 32.0 °F 22.1 °F 28.0 °F 85% 30.05 in 6.0 mi SW 13.8 mph - N/A   Overcast
8:53 PM 33.1 °F 23.9 °F 28.0 °F 82% 30.06 in 7.0 mi WSW 12.7 mph - 0.00 in   Overcast
9:53 PM 33.1 °F 23.4 °F 28.0 °F 82% 30.05 in 6.0 mi WSW 13.8 mph - N/A   Haze
11:53 PM 33.1 °F 24.9 °F 28.0 °F 82% 30.06 in 7.0 mi West 10.4 mph - N/A   Overcast